TimeEST,TemperatureF,Dew PointF,Humidity,Sea Level PressureIn,VisibilityMPH,Wind Direction,Wind SpeedMPH,Gust SpeedMPH,PrecipitationIn,Events,Conditions,WindDirDegrees,DateUTC
12:53 AM,34.0,19.0,54,30.05,10.0,Variable,5.8,-,N/A,,Overcast,0,2013-01-18 05:53:00
1:53 AM,30.9,19.0,61,30.11,10.0,NNE,5.8,-,N/A,,Overcast,20,2013-01-18 06:53:00
2:53 AM,30.0,17.1,59,30.14,10.0,Variable,4.6,-,N/A,,Overcast,0,2013-01-18 07:53:00
3:53 AM,28.0,15.1,58,30.13,10.0,Variable,4.6,-,0.00,,Mostly Cloudy,0,2013-01-18 08:53:00
4:53 AM,28.0,15.1,58,30.17,10.0,North,4.6,-,N/A,,Overcast,350,2013-01-18 09:53:00
5:53 AM,27.0,14.0,58,30.23,10.0,Variable,4.6,-,N/A,,Overcast,0,2013-01-18 10:53:00
6:53 AM,26.1,14.0,60,30.28,10.0,Variable,5.8,-,N/A,,Mostly Cloudy,0,2013-01-18 11:53:00
7:53 AM,26.1,12.9,58,30.34,10.0,NNW,11.5,20.7,N/A,,Overcast,340,2013-01-18 12:53:00
8:53 AM,26.1,8.1,47,30.39,10.0,NNW,9.2,19.6,N/A,,Clear,340,2013-01-18 13:53:00
9:53 AM,27.0,6.1,41,30.45,10.0,Variable,6.9,21.9,N/A,,Clear,0,2013-01-18 14:53:00
10:53 AM,26.1,6.1,43,30.46,10.0,NNW,12.7,19.6,N/A,,Partly Cloudy,330,2013-01-18 15:53:00
11:53 AM,28.0,5.0,38,30.46,10.0,Variable,6.9,20.7,N/A,,Scattered Clouds,0,2013-01-18 16:53:00
12:53 PM,28.0,1.9,33,30.44,10.0,NW,11.5,-,N/A,,Clear,320,2013-01-18 17:53:00
1:53 PM,28.9,1.0,30,30.45,10.0,North,9.2,19.6,N/A,,Clear,350,2013-01-18 18:53:00
2:53 PM,28.9,1.0,30,30.46,10.0,NNW,9.2,-,N/A,,Clear,330,2013-01-18 19:53:00
3:37 PM,28.4,1.4,31,30.43,10.0,WNW,8.1,-,N/A,,Clear,300,2013-01-18 20:37:00
3:38 PM,28.4,1.4,31,30.43,10.0,WNW,8.1,-,N/A,,Clear,300,2013-01-18 20:38:00
3:53 PM,28.9,1.0,30,30.46,10.0,WNW,3.5,-,N/A,,Clear,300,2013-01-18 20:53:00
4:53 PM,28.0,1.0,31,30.48,10.0,WNW,5.8,-,N/A,,Clear,290,2013-01-18 21:53:00
5:53 PM,27.0,1.9,34,30.50,10.0,Calm,Calm,-,N/A,,Clear,0,2013-01-18 22:53:00
6:53 PM,27.0,3.9,37,30.50,10.0,Calm,Calm,-,N/A,,Clear,0,2013-01-18 23:53:00
7:53 PM,27.0,5.0,39,30.49,10.0,SSW,3.5,-,N/A,,Clear,210,2013-01-19 00:53:00
8:53 PM,27.0,6.1,41,30.47,10.0,Variable,3.5,-,N/A,,Clear,0,2013-01-19 01:53:00
9:53 PM,26.1,7.0,44,30.47,10.0,SW,3.5,-,N/A,,Clear,220,2013-01-19 02:53:00
10:53 PM,27.0,8.1,45,30.45,10.0,SW,3.5,-,N/A,,Partly Cloudy,230,2013-01-19 03:53:00
11:53 PM,27.0,8.1,45,30.41,10.0,Variable,3.5,-,N/A,,Clear,0,2013-01-19 04:53:00